Regional Weather Roundup
Issued by NWS

Home | Current Version | Previous Version | Text Only | Print | Product List | Glossary Off
Versions: 1 2 3 4 5 6 7 8 9 10 11 12 13 14 15 16 17 18 19 20 21 22 23 24 25 26 27 28 29 30 31 32 33 34 35 36 37 38 39 40 41 42 43 44 45 46 47 48 49 50

321
ASUS44 KMEG 270410
RWRTN
TENNESSEE HOURLY STATE WEATHER ROUNDUP
NATIONAL WEATHER SERVICE MEMPHIS TN
1100 PM CDT MON JUN 26 2017

TNZ002-004-019-021-049-052-054-088>092-270500-
WEST TENNESSEE

CITY           SKY/WX    TMP DP  RH WIND       PRES   REMARKS
MEMPHIS INTL   PTCLDY    77  60  55 E7        30.09S
NWS MEMPHIS      N/A     70 N/A N/A MISG        N/A
JACKSON        CLOUDY    69  64  84 CALM      30.10F
SOMERVILLE     MOCLDY    66  63  88 CALM      30.09S
COVINGTON      CLOUDY    72  64  78 CALM      30.10S
UNION CITY     MOCLDY    68  64  88 SW3       30.10R
BOLIVAR        PTCLDY    64  61  88 CALM      30.10S
HUNTINGDON     MOCLDY    68  61  77 CALM      30.10R
LEXINGTON      MOCLDY    68  61  77 CALM      30.10F
SELMER         CLEAR     64  63  94 CALM      30.11S
SAVANNAH       CLEAR     64  63  94 CALM      30.10S
$$

TNZ008-025-027-028-033-062-065-066-270500-
NORTH MIDDLE TENNESSEE

CITY           SKY/WX    TMP DP  RH WIND       PRES   REMARKS
NASHVILLE      CLOUDY    68  56  65 S7        30.10F
PORTLAND       CLOUDY    64  59  82 CALM      30.08S
CLARKSVILLE    MOCLDY    67  55  65 W5        30.10R
SMYRNA         CLOUDY    67  58  72 S5        30.12S
COOKEVILLE     CLEAR     61  59  94 CALM      30.12R
GALLATIN       MOCLDY    66  55  68 S5        30.11F
CROSSVILLE     PTCLDY    57  54  89 CALM      30.15F
$$

TNZ061-075-076-078-094-096-097-270500-
SOUTH MIDDLE TENNESSEE

CITY           SKY/WX    TMP DP  RH WIND       PRES   REMARKS
FAYETTEVILLE   CLEAR     68  61  77 CALM      30.11F
TULLAHOMA      MOCLDY    63  57  82 CALM      30.14R
WINCHESTER     CLEAR     63  61  94 CALM      30.13S
MCMINNVILLE    CLEAR     61  61 100 CALM      30.13R
COLUMBIA       CLEAR     64  64 100 CALM      30.11R
SHELBYVILLE    CLEAR     63  61  94 CALM      30.12R
$$

TNZ017-018-042-046-047-270500-
NORTHEAST TENNESSEE

CITY           SKY/WX    TMP DP  RH WIND       PRES   REMARKS
TRI CITIES     NOT AVBL
ELIZABETHTON   PTCLDY    59  57  94 CALM      30.12S
$$

TNZ012-013-036-069-073-074-270500-
CENTRAL EAST TENNESSEE

CITY           SKY/WX    TMP DP  RH WIND       PRES   REMARKS
KNOXVILLE      MOCLDY    66  56  70 CALM      30.10R
OAK RIDGE      PTCLDY    62  55  77 CALM      30.13R
DOWNTOWN KNOXV   N/A     61  61 100 CALM      30.10S
GATLINBURG     CLEAR     61  55  82 CALM      30.11R
MORRISTOWN     MOCLDY    63  57  82 CALM      30.11R
JACKSBORO        N/A     61  57  88 CALM      30.16R
$$

TNZ083-085-099-270500-
SOUTHEAST TENNESSEE

CITY           SKY/WX    TMP DP  RH WIND       PRES   REMARKS
CHATTANOOGA    PTCLDY    69  59  70 CALM      30.11R
DAYTON         MOCLDY    63  59  88 CALM      30.10F
$$

SKY/WX REPORTED AS FAIR MEANS FEW OR NO CLOUDS BELOW
12 THOUSAND FEET.





USA.gov is the U.S. government's official web portal to all federal, state and local government web resources and services.